This is the latest recevied weather packets stored in our database for station/object KI8L. If no packets are shown the sender has not sent any weather packets the latest 1 day(s).
| Time | Temp. | Humidity | Pressure | Rain* | Wind** | Luminosity | Snow |
|---|---|---|---|---|---|---|---|
| 1778026979 | 11.11° C | 99% | 1009.9 hPa | 3.05 mm | 0 m/s | 0 W/m² | - |
| 1778026674 | 11.11° C | 99% | 1009.8 hPa | 3.05 mm | 0 m/s | 1 W/m² | - |
| 1778026372 | 11.11° C | 99% | 1009.7 hPa | 7.11 mm | 0.89 m/s, 34° | 1 W/m² | - |
| 1778026069 | 11.11° C | 99% | 1009.7 hPa | 7.87 mm | 0.89 m/s, 48° | 1 W/m² | - |
| 1778025766 | 11.67° C | 99% | 1009.9 hPa | 7.87 mm | 0.89 m/s, 15° | 2 W/m² | - |
| 1778025463 | 12.22° C | 99% | 1010 hPa | 7.87 mm | 0.45 m/s, 353° | 2 W/m² | - |
| 1778025161 | 12.22° C | 99% | 1010 hPa | 6.1 mm | 0.89 m/s, 356° | 1 W/m² | - |
| 1778024857 | 12.78° C | 99% | 1009.9 hPa | 4.32 mm | 1.34 m/s, 10° | 3 W/m² | - |
| 1778024555 | 12.78° C | 99% | 1009.9 hPa | 1.27 mm | 1.34 m/s, 355° | 3 W/m² | - |
| 1778024251 | 13.33° C | 99% | 1009.7 hPa | 0 mm | 1.34 m/s, 25° | 6 W/m² | - |
| 1778023950 | 13.33° C | 99% | 1009.9 hPa | 1.78 mm | 0 m/s | 6 W/m² | - |
| 1778023646 | 13.33° C | 99% | 1009.8 hPa | 1.78 mm | 0 m/s | 8 W/m² | - |
| 1778023344 | 13.33° C | 99% | 1009.9 hPa | 0 mm | 0 m/s | 6 W/m² | - |
| 1778023040 | 13.89° C | 99% | 1010 hPa | 0 mm | 0 m/s | 9 W/m² | - |
| 1778022740 | 13.89° C | 99% | 1010.1 hPa | 1.27 mm | 0 m/s | 14 W/m² | - |
| 1778022437 | 13.89° C | 99% | 1009.9 hPa | 1.27 mm | 0 m/s | 13 W/m² | - |
| 1778022134 | 13.89° C | 99% | 1010 hPa | 1.78 mm | 0 m/s | 6 W/m² | - |
| 1778021830 | 13.89° C | 99% | 1010 hPa | 3.05 mm | 0 m/s | 10 W/m² | - |
| 1778021527 | 13.89° C | 99% | 1010.1 hPa | 4.83 mm | 0.45 m/s, 355° | 12 W/m² | - |
| 1778021222 | 13.89° C | 99% | 1010.3 hPa | 4.83 mm | 0 m/s | 12 W/m² | - |
| 1778020920 | 13.89° C | 99% | 1010.3 hPa | 6.1 mm | 0 m/s | 14 W/m² | - |
| 1778020618 | 13.89° C | 99% | 1010.3 hPa | 4.83 mm | 0 m/s | 18 W/m² | - |
| 1778020313 | 13.89° C | 99% | 1010.4 hPa | 4.83 mm | 0 m/s | 20 W/m² | - |
| 1778020010 | 13.89° C | 99% | 1010.3 hPa | 7.11 mm | 0 m/s | 15 W/m² | - |
| 1778019706 | 13.89° C | 99% | 1010.2 hPa | 10.67 mm | 0.45 m/s, 309° | 13 W/m² | - |
* Rain latest hour (hover to see other rain measurements)
** Current wind speed in m/s (hover to see current wind gust speed)